Home > Time Zones > World Clock > Weather > Macau > Macau > Past weeks

Flag for Macau Weather past 2 weeks in Macau, Macau

Now
88 °F

Passing clouds.


Feels Like: 105 °F
Forecast: 82 / 87 °F
Wind: 9 mph from South

Location: Taipa

Current Time: Jul 25, 2014 at 12:16:15 PM

Latest Report: Jul 25, 2014 at 11:30 AM


Visibility: N/A

Pressure: 29.71 "Hg

Humidity: 79%

Dew point: 81 °F

Location of MacauLocation

Historic Weather in Macau — Graph

°F

Macau temperature yesterday

Maximum temperature yesterday: 90 °F (at 1:30 PM)
Minimum temperature yesterday: 81 °F (at 11:30 PM)
Average temperature yesterday: 86 °F

Past Weeks' High & Low Weather Summary

 TemperatureHumidityPressure
High93 °F (Jul 22, 12:30 PM)100% (Jul 17, 6:00 PM)29.83 "Hg (Jul 17, 6:00 PM)
Low79 °F (Jul 11, 8:00 AM)56% (Jul 22, 12:30 PM)29.45 "Hg (Jul 23, 5:00 PM)
Average86 °F80%29.68 "Hg
* Reported Jul 10 11:00 AM — Jul 25 11:00 AM, Macau, Weather by CustomWeather, © 2014

Note: Actual official high and low records may vary slightly from our data, if they occured in-between our weather recording intervals... More about our weather records

Advertising

Macau weather history for previous 24 hours

 ConditionsComfort  
Time TempWeatherWind HumidityBarometerVisibility
11:00 AM
Jul 25
88 °FPassing clouds.9 mph75%29.71 "HgN/A
10:30 AM88 °FPassing clouds.10 mph75%29.71 "HgN/A
10:00 AM88 °FScattered clouds.9 mph75%29.71 "HgN/A
9:30 AM88 °FPassing clouds.7 mph75%29.71 "HgN/A
9:00 AM86 °FPassing clouds.8 mph75%29.68 "HgN/A
8:30 AM86 °FPassing clouds.7 mph79%29.68 "HgN/A
8:00 AM84 °FPassing clouds.5 mph84%29.68 "HgN/A
7:30 AM84 °FPassing clouds.6 mph84%29.65 "HgN/A
7:00 AM82 °FPassing clouds.7 mph89%29.65 "HgN/A
6:30 AM82 °FPassing clouds.7 mph89%29.65 "HgN/A
6:00 AM82 °FPassing clouds.8 mph84%29.62 "HgN/A
5:30 AM82 °FPassing clouds.7 mph84%29.62 "HgN/A
5:00 AM84 °FPassing clouds.9 mph79%29.62 "HgN/A
4:30 AM84 °FPassing clouds.9 mph84%29.62 "HgN/A
4:00 AM84 °FPassing clouds.10 mph84%29.65 "HgN/A
3:30 AM84 °FPassing clouds.10 mph84%29.65 "HgN/A
3:00 AM84 °FPassing clouds.10 mph84%29.62 "HgN/A
2:30 AM84 °FPassing clouds.9 mph84%29.62 "HgN/A
2:00 AM84 °FPassing clouds.9 mph84%29.65 "HgN/A
1:30 AM84 °FPassing clouds.8 mph84%29.65 "HgN/A
1:00 AM82 °FPassing clouds.5 mph89%29.65 "HgN/A
12:30 AM82 °FPassing clouds.7 mph84%29.65 "HgN/A
12:00 AM81 °FSprinkles. Passing clouds.9 mph89%29.65 "HgN/A
11:30 PM
Jul 24
81 °FSprinkles. Passing clouds.13 mph89%29.68 "HgN/A
11:00 PM82 °FSprinkles. Passing clouds.17 mph84%29.65 "HgN/A
10:30 PM84 °FPassing clouds.9 mph89%29.65 "HgN/A
10:00 PM84 °FPassing clouds.14 mph89%29.62 "HgN/A
9:30 PM84 °FPassing clouds.17 mph89%29.62 "HgN/A
9:00 PM84 °FPassing clouds.20 mph89%29.59 "HgN/A
8:30 PM84 °FPassing clouds.20 mph94%29.59 "HgN/A
8:00 PM86 °FPassing clouds.20 mph89%29.59 "HgN/A
7:30 PM86 °FPassing clouds.20 mph84%29.56 "HgN/A
7:00 PM86 °FPassing clouds.16 mph84%29.53 "HgN/A
6:30 PM86 °FPassing clouds.16 mph84%29.53 "HgN/A
6:00 PM86 °FPassing clouds.14 mph84%29.50 "HgN/A
5:30 PM86 °FPassing clouds.15 mph84%29.50 "HgN/A
5:00 PM88 °FPassing clouds.17 mph79%29.47 "HgN/A
4:30 PM88 °FPassing clouds.16 mph79%29.50 "HgN/A
4:00 PM88 °FPassing clouds.17 mph79%29.50 "HgN/A
3:30 PM90 °FPassing clouds.16 mph75%29.50 "HgN/A
3:00 PM90 °FPassing clouds.14 mph75%29.50 "HgN/A
2:30 PM90 °FPassing clouds.16 mph79%29.53 "HgN/A
2:00 PM90 °FPassing clouds.17 mph79%29.53 "HgN/A
1:30 PM90 °FPassing clouds.17 mph75%29.56 "HgN/A
1:00 PM88 °FScattered clouds.17 mph79%29.56 "HgN/A
12:30 PM88 °FScattered clouds.14 mph79%29.56 "HgN/A
12:00 PM88 °FScattered clouds.17 mph79%29.56 "HgN/A
Weather by CustomWeather, © 2014

See weather overviewHow to use our weather pages